Location: Brachstadt
(48.6975°N, 10.6755°E)
Time: 08:39:50
(UTC+00:00)

H-2A R/B - Pass Details

Date: 18 September 2020
Orbit: 734 x 836 km, 98.2° (Epoch: 24 October)

Event Time Altitude Azimuth Distance (km) Brightness Sun altitude
Rises 19:13:59 0° 195° (SSW) 3,160 5.1 -18.5°
Reaches altitude 10° 19:16:31 10° 206° (SSW) 2,250 4.4 -18.9°
Maximum altitude 19:20:48 29° 266° (W) 1,364 3.9 -19.5°
Drops below altitude 10° 19:25:11 10° 326° (NNW) 2,309 5.4 -20.2°
Sets 19:27:49 0° 338° (NNW) 3,257 6.0 -20.6°
